Вернуться в каталог

CZ-3B DEB

LostGTO
NORAD 40840·DEBRIS·🇨🇳 China

Запущен Dec 19, 2011 с Xichang Satellite Launch Center

Loading…

TLE

УстаревшееSource: Space-Track

Эпоха: Aug 28, 2025, 22:23 UTC

1 40840U 11077V   25240.93292967 -.00000232  00000-0  74838-2 0  9992
2 40840  27.6641  83.6794 7336821 204.8174  85.6647  1.92928188 81921

Отслеживайте CZ-3B DEB в реальном времени с AllMySat

Download on the App Store